Погода в Жилине

Словакия     49°13′29″N   18°44′28″E
темп.,
°C
ветер,
м/с
пор.,
м/с
влажн.,
%
обл.,
%
осадки,
мм/ч
давл.,
гПа
погр.,
м
16 мая, вс
вс1623:00+8юв1195100 0.1 100813
02:00+8юв2295100 0.1 100828
05:00+8ююв1196100 0.2 100622
08:00+9юз1198100 1.3 100789
11:00+9ююв1296100 4.7 1007261
14:00+11ю2389100 5.6 1007553
17:00+13юз247967 1.6 1006796
20:00+10юв22890 1.9 100714
17 мая, пн
пн1723:00+7юв11955 0.0 100814
02:00+6в1195100 0.0 100813
05:00+6в229583 0.0 100626
08:00+8всв1295100 0.6 100551
11:00+9всв1297100 2.1 1004114
14:00+10ю1397100 9.7 1005248
17:00+7ю1299100 3.8 1006142
20:00+8юз1197100 4.8 100738
18 мая, вт
вт1823:00+8зюз1298100 0.1 1008116
02:00+7зюз2698100 0.9 1009424
05:00+7з2896100 0.3 1010651
08:00+8з3892100 0.3 1011802
11:00+9з379086 0.8 1012796
14:00+13з4769100 2.1 10111606
17:00+10зюз378976 1.9 1012445
20:00+9юз11934 2.8 101211
19 мая, ср
ср1923:00+6юз119624 0.2 101416
02:00+5юз119792 0.4 101510
05:00+6зюз119888 0.0 101530
08:00+9з1187100 0.0 1014565
11:00+9зюз2287100 0.4 1014504
14:00+10з3380100 1.3 1013825
17:00+11ссз237762 0.9 1013788
20:00+8всв1191100 1.6 101311
20 мая, чт
чт2023:00+5с11965 0.0 101412
02:00+6ссв119569 0.0 101430
05:00+3св11969 0.0 101510
08:00+6с1392100 0.0 1015316
11:00+8с368360 0.2 1016867
14:00+13с465789 0.3 10151657
17:00+11с366834 0.4 10161359
20:00+8с22887 0.6 101720